Location: Houston
(29.7630°N, 95.3630°W)
Time: 00:36:29
(UTC-05:00)

Amateur Radio Satellites - All Passes

Search period start: 02 June 2015 00:06
Search period end: 03 June 2015 00:06
Location: Houston, 29.7630°N, 95.3630°W

Satellite Date Start Highest point End Downlink Frequencies (MHz)
Time Altitude Azimuth
HUMSAT D 02 Jun 00:07:43 00:10:53 19° 265° (W) 00:13:55 437.325/437.525
TISAT 1 02 Jun 00:08:41 00:10:50 14° 71° (ENE) 00:13:13 437.305
SPROUT 02 Jun 00:10:15 00:13:31 22° 72° (ENE) 00:16:54 437.525
DANDE 02 Jun 00:15:36 00:22:13 68° 79° (E) 00:27:06 436.750
VELOX 1 02 Jun 00:17:24 00:21:23 32° 263° (W) 00:25:21 145.980
UNISAT 6 02 Jun 00:24:03 00:28:04 39° 286° (WNW) 00:32:02 437.425
VERMONT LUNAR 02 Jun 00:24:25 00:26:57 21° 343° (NNW) 00:29:29 437.305
PHONESAT 2.4 02 Jun 00:34:51 00:38:20 59° 332° (NNW) 00:41:49 2401.200-2431.200
QB50P1 02 Jun 00:40:49 00:45:01 61° 284° (WNW) 00:49:11 145.935-145.965
GONETS M04 02 Jun 00:44:00 00:52:48 82° 84° (E) 01:01:30
POLYITAN 1 02 Jun 00:46:39 00:50:47 50° 285° (WNW) 00:54:51 437.675
ESTCUBE 1 02 Jun 00:46:44 00:50:30 26° 264° (W) 00:54:12 437.505/2401.250
AISAT 02 Jun 00:54:01 00:55:50 12° 268° (W) 00:57:21 437.250
SO-50 02 Jun 01:09:31 01:13:21 27° 111° (ESE) 01:17:23 436.795
ANTELSAT 02 Jun 01:09:41 01:11:25 12° 290° (WNW) 01:12:56 437.575/2403.000
NANOSAT C BR1 02 Jun 01:10:10 01:13:46 26° 287° (WNW) 01:17:16 145.865
SWISSCUBE 02 Jun 01:10:30 01:12:23 13° 69° (ENE) 01:14:34 437.505
PCSat 02 Jun 01:19:00 01:22:20 16° 307° (NW) 01:25:26 145.827
Cosmos 2499 02 Jun 01:22:28 01:27:30 21° 73° (ENE) 01:32:59 435.465 / 435.565
BUGSAT 1 02 Jun 01:22:49 01:26:30 28° 287° (WNW) 01:30:04 437.445
QB50P2 02 Jun 01:23:50 01:26:48 18° 288° (WNW) 01:29:36 145.880/145.840
BEESAT 2 02 Jun 01:24:13 01:24:36 10° 49° (NE) 01:25:13 435.950
DUCHIFAT 1 02 Jun 01:30:59 01:33:38 16° 289° (WNW) 01:36:04 145.980
O/OREOS (USA 219) 02 Jun 01:31:54 01:36:23 77° 253° (WSW) 01:40:51 437.305
POPSAT HIP 1 02 Jun 01:34:58 01:37:17 14° 289° (WNW) 01:39:22 437.405
TISAT 1 02 Jun 01:42:26 01:46:21 35° 262° (W) 01:50:14 437.305
SPROUT 02 Jun 01:46:01 01:49:30 23° 265° (W) 01:52:54 437.525
Oscar 19 02 Jun 01:51:11 01:54:45 20° 94° (E) 01:58:29 437.125/150
BEESAT 3 02 Jun 02:01:16 02:04:58 34° 58° (ENE) 02:08:38 437.485
DANDE 02 Jun 02:02:43 02:04:11 11° 280° (W) 02:05:07 436.750
VERMONT LUNAR 02 Jun 02:03:31 02:04:54 12° 359° (N) 02:06:18 437.305
PHONESAT 2.4 02 Jun 02:14:27 02:16:54 18° 348° (NNW) 02:19:21 2401.200-2431.200
KKS-1 02 Jun 02:29:55 02:31:55 13° 70° (ENE) 02:34:09 437.445
ITUPSAT 1 02 Jun 02:32:11 02:36:56 81° 259° (WSW) 02:41:43 437.325
BEESAT 02 Jun 02:35:29 02:40:14 72° 259° (W) 02:44:58 436.000
GONETS M04 02 Jun 02:44:10 02:48:47 15° 277° (W) 02:52:41
SWISSCUBE 02 Jun 02:45:17 02:49:52 50° 260° (W) 02:54:29 437.505
SO-50 02 Jun 02:49:59 02:53:51 25° 306° (NW) 02:57:45 436.795
BEESAT 2 02 Jun 02:59:06 03:03:06 55° 246° (WSW) 03:06:59 435.950
Cosmos 2499 02 Jun 03:14:08 03:20:57 50° 268° (W) 03:28:02 435.465 / 435.565
STARS 02 Jun 03:15:35 03:19:17 27° 73° (ENE) 03:23:05 437.465
Oscar 19 02 Jun 03:29:31 03:34:13 35° 287° (WNW) 03:38:48 437.125/150
AIST 2 02 Jun 03:32:20 03:36:32 81° 62° (ENE) 03:40:38 435.215
Gurwin Techsat 1B 02 Jun 03:35:58 03:41:15 64° 101° (E) 03:46:31 435.225
VERMONT LUNAR 02 Jun 03:40:27 03:42:52 19° 16° (NNE) 03:45:17 437.305
BEESAT 3 02 Jun 03:40:35 03:42:40 13° 250° (WSW) 03:44:31 437.485
PHONESAT 2.4 02 Jun 03:53:52 03:55:53 14° 5° (N) 03:57:55 2401.200-2431.200
ITAMSAT 1 02 Jun 03:58:08 04:03:21 72° 285° (WNW) 04:08:34 435.822/435.867
KKS-1 02 Jun 04:03:57 04:08:13 42° 261° (W) 04:12:29 437.445
JAS-2 02 Jun 04:04:10 04:07:48 19° 95° (E) 04:11:52 435.910
ISS 02 Jun 04:09:30 04:11:20 14° 35° (NE) 04:13:13 145.825
MOZHAYETS 4 02 Jun 04:45:46 04:49:50 33° 74° (ENE) 04:53:58
AO-7 02 Jun 04:50:49 04:58:43 46° 101° (E) 05:06:41 29.400- 29.500
STARS 02 Jun 04:52:27 04:55:44 19° 265° (W) 04:58:52 437.465
HORYU 2 02 Jun 04:55:04 04:59:28 66° 101° (E) 05:03:51 437.375
VERMONT LUNAR 02 Jun 05:17:06 05:20:18 84° 214° (SSW) 05:23:29 437.305
Gurwin Techsat 1B 02 Jun 05:18:32 05:20:46 12° 293° (WNW) 05:22:41 435.225
PHONESAT 2.4 02 Jun 05:31:32 05:34:41 31° 22° (NNE) 05:37:49 2401.200-2431.200
ISS 02 Jun 05:44:49 05:47:54 40° 230° (SW) 05:50:58 145.825
JAS-2 02 Jun 05:48:09 05:53:03 38° 286° (WNW) 05:58:15 435.910
RS-15 02 Jun 06:12:11 06:13:57 11° 102° (ESE) 06:17:04 29.354- 29.394
MOZHAYETS 4 02 Jun 06:24:14 06:27:11 16° 267° (W) 06:29:56
Cosmos 2491 02 Jun 06:30:17 06:38:55 58° 80° (E) 06:47:31 435.465 / 435.565
CUBESAT XI-V 02 Jun 06:43:25 06:47:50 50° 75° (ENE) 06:52:19 437.345
AO-7 02 Jun 06:44:03 06:51:18 33° 295° (WNW) 06:58:20 29.400- 29.500
PRISM 02 Jun 06:45:29 06:48:15 19° 72° (ENE) 06:51:11 437.425
CUTE-I 02 Jun 07:01:52 07:06:41 34° 97° (E) 07:11:33 437.470
PHONESAT 2.4 02 Jun 07:09:33 07:12:49 39° 215° (SW) 07:16:03 2401.200-2431.200
YUBILEINY 02 Jun 07:10:57 07:19:27 58° 92° (E) 07:27:58 435.215
Cubesat XI-IV 02 Jun 07:24:15 07:29:34 59° 101° (E) 07:34:52 437.490
JUGNU 02 Jun 07:24:54 07:29:18 21° 167° (SSE) 07:33:45 437.505
STRAND 1 02 Jun 07:33:27 07:38:30 70° 75° (ENE) 07:43:36 437.568
AIST 1 02 Jun 07:45:43 07:50:07 68° 83° (E) 07:54:29
RS-15 02 Jun 08:14:14 08:25:03 77° 115° (ESE) 08:36:06 29.354- 29.394
M-CUBED/EXP-1 PRIME 02 Jun 08:16:05 08:20:14 64° 254° (WSW) 08:24:02 437.505
AUBIESAT-1 02 Jun 08:17:29 08:21:35 73° 254° (WSW) 08:25:23 437.475
PRISM 02 Jun 08:20:15 08:23:35 24° 264° (W) 08:26:51 437.425
BRITE-PL 02 Jun 08:21:42 08:25:18 19° 91° (E) 08:28:57 437.365/2234.400
CUBESAT XI-V 02 Jun 08:24:14 08:25:37 11° 269° (W) 08:26:40 437.345
Cosmos 2491 02 Jun 08:28:35 08:35:17 24° 274° (W) 08:41:31 435.465 / 435.565
PCSat 02 Jun 08:29:02 08:31:39 14° 52° (NE) 08:34:32 145.827
CUTE-I 02 Jun 08:42:22 08:46:35 23° 290° (WNW) 08:50:39 437.470
SRMSAT 02 Jun 08:55:37 08:59:49 20° 166° (SSE) 09:04:03 437.500
Cubesat XI-IV 02 Jun 09:06:32 09:09:14 14° 292° (WNW) 09:11:37 437.490
CANX-2 02 Jun 09:09:22 09:12:25 20° 95° (E) 09:15:36 2200.000
YUBILEINY 02 Jun 09:09:59 09:16:50 24° 288° (WNW) 09:23:16 435.215
CUTE 1.7 + AOD 2 02 Jun 09:11:53 09:14:50 19° 94° (E) 09:17:56 437.475
JUGNU 02 Jun 09:12:40 09:17:52 31° 176° (S) 09:23:05 437.505
SEEDS 02 Jun 09:23:09 09:26:16 21° 95° (E) 09:29:31 437.485
GOMX 1 02 Jun 09:25:14 09:30:14 55° 99° (E) 09:34:53 467.674
COMPASS 1 02 Jun 09:25:17 09:27:58 17° 94° (E) 09:30:48 437.405
HO-68 02 Jun 09:26:25 09:33:01 41° 99° (E) 09:39:42 435.675
AAUSAT CUBESAT 2 02 Jun 09:31:18 09:33:58 17° 94° (E) 09:36:47 437.432
Cosmos 2504 02 Jun 09:40:18 09:48:19 56° 92° (E) 09:55:52 435.465 / 435.565
Oscar 11 02 Jun 09:47:50 09:48:57 11° 91° (E) 09:50:22 145.826/435.025
DOVE 4 02 Jun 09:51:43 09:56:33 68° 101° (E) 10:01:03 437.250
BRITE-PL 02 Jun 09:58:59 10:04:01 39° 287° (WNW) 10:08:41 437.365/2234.400
PCSat 02 Jun 10:10:15 10:15:37 66° 248° (WSW) 10:20:57 145.827
CINEMA 3 02 Jun 10:14:51 10:19:15 53° 99° (E) 10:23:27 145.822/145.860
CUBEBUG 2 02 Jun 10:19:13 10:22:45 25° 95° (E) 10:26:16 437.445
ANTELSAT 02 Jun 10:24:36 10:27:54 20° 72° (ENE) 10:31:19 437.575/2403.000
RS-15 02 Jun 10:29:52 10:38:42 26° 316° (NW) 10:47:20 29.354- 29.394
QB50P2 02 Jun 10:37:50 10:38:02 10° 69° (ENE) 10:38:32 145.880/145.840
FUNcube-1 02 Jun 10:42:03 10:45:38 28° 96° (E) 10:49:14 145.935
DUCHIFAT 1 02 Jun 10:43:08 10:44:22 11° 70° (ENE) 10:45:52 145.980
SRMSAT 02 Jun 10:43:24 10:48:31 30° 175° (S) 10:53:40 437.500
CANX-2 02 Jun 10:44:54 10:48:19 23° 287° (WNW) 10:51:35 2200.000
DELFI C3 02 Jun 10:45:03 10:48:53 42° 99° (E) 10:52:43 145.870
POPSAT HIP 1 02 Jun 10:46:27 10:48:23 13° 70° (ENE) 10:50:33 437.405
CUTE 1.7 + AOD 2 02 Jun 10:47:17 10:50:44 24° 287° (WNW) 10:54:06 437.475
UWE-3 02 Jun 10:50:57 10:55:05 51° 99° (E) 10:59:08 435.000/436.395/437.385
TIGRISAT 02 Jun 10:52:52 10:57:14 41° 75° (ENE) 11:01:34 435.000
SEEDS 02 Jun 10:58:44 11:02:00 22° 287° (WNW) 11:05:10 437.485
COMPASS 1 02 Jun 11:00:09 11:03:39 26° 286° (WNW) 11:07:05 437.405
JUGNU 02 Jun 11:01:21 11:06:29 30° 186° (S) 11:11:35 437.505
GOMX 1 02 Jun 11:05:36 11:07:50 13° 293° (WNW) 11:09:43 467.674
AAUSAT CUBESAT 2 02 Jun 11:06:06 11:09:35 26° 287° (WNW) 11:13:00 437.432
UKube-1 02 Jun 11:12:28 11:16:05 26° 97° (E) 11:19:46 .
AISAT 02 Jun 11:13:06 11:15:19 14° 93° (E) 11:17:46 437.250
50 SAT 02 Jun 11:14:18 11:16:11 14° 93° (E) 11:18:14 437.505
HO-68 02 Jun 11:14:29 11:20:35 30° 292° (WNW) 11:26:29 435.675
UNISAT 6 02 Jun 11:16:09 11:20:50 83° 78° (ENE) 11:25:28 437.425
CUSAT 1 02 Jun 11:18:38 11:22:56 17° 85° (E) 11:28:00 437.405
Oscar 11 02 Jun 11:21:18 11:25:23 42° 285° (WNW) 11:29:26 145.826/435.025
ZACube-1 02 Jun 11:25:14 11:29:26 74° 284° (WNW) 11:33:34 437.345
SO-50 02 Jun 11:26:11 11:31:05 61° 61° (ENE) 11:35:51 436.795
QB50P1 02 Jun 11:27:24 11:31:26 43° 75° (ENE) 11:35:32 145.935-145.965
DX 1 02 Jun 11:31:25 11:35:41 50° 100° (E) 11:39:56 434.975-435.025
POLYITAN 1 02 Jun 11:33:18 11:37:29 53° 76° (ENE) 11:41:42 437.675
DANDE 02 Jun 11:35:41 11:40:06 18° 84° (E) 11:45:24 436.750
Cosmos 2504 02 Jun 11:35:44 11:42:02 23° 286° (WNW) 11:47:42 435.465 / 435.565
GONETS M04 02 Jun 11:44:35 11:49:33 18° 84° (E) 11:55:09
CUBEBUG 1 02 Jun 11:51:48 11:54:56 19° 94° (E) 11:58:12 437.445
NANOSAT C BR1 02 Jun 11:55:46 12:00:02 80° 258° (WSW) 12:04:20 145.865
CUBEBUG 2 02 Jun 11:56:15 11:59:18 18° 289° (WNW) 12:02:08 437.445
HUMSAT D 02 Jun 11:56:32 12:00:38 72° 283° (WNW) 12:04:41 437.325/437.525
ANTELSAT 02 Jun 12:00:24 12:04:31 29° 263° (W) 12:08:31 437.575/2403.000
BUGSAT 1 02 Jun 12:06:01 12:10:10 87° 78° (ENE) 12:14:24 437.445
QB50P2 02 Jun 12:09:22 12:13:33 51° 260° (W) 12:17:44 145.880/145.840
VELOX 1 02 Jun 12:13:19 12:17:49 78° 102° (ESE) 12:22:15 145.980
DUCHIFAT 1 02 Jun 12:15:44 12:19:50 44° 261° (W) 12:23:56 145.980
FUNcube-1 02 Jun 12:19:03 12:21:47 16° 289° (WNW) 12:24:19 145.935
POPSAT HIP 1 02 Jun 12:19:56 12:23:57 38° 262° (W) 12:27:59 437.405
DELFI C3 02 Jun 12:23:05 12:23:39 10° 290° (WNW) 12:23:57 145.870
TIGRISAT 02 Jun 12:31:34 12:34:09 14° 267° (W) 12:36:26 435.000
SRMSAT 02 Jun 12:32:09 12:37:17 30° 185° (S) 12:42:24 437.500
ESTCUBE 1 02 Jun 12:44:30 12:49:03 78° 283° (WNW) 12:53:35 437.505/2401.250
50 SAT 02 Jun 12:47:39 12:50:57 27° 286° (WNW) 12:54:12 437.505
AISAT 02 Jun 12:47:55 12:52:05 37° 286° (WNW) 12:56:10 437.250
UKube-1 02 Jun 12:48:53 12:52:05 20° 289° (WNW) 12:55:07 .
JUGNU 02 Jun 12:50:57 12:55:02 19° 195° (SSW) 12:59:02 437.505
CUSAT 1 02 Jun 12:57:11 13:04:46 81° 279° (W) 13:13:09 437.405
Oscar 19 02 Jun 13:02:53 13:05:55 16° 69° (ENE) 13:09:12 437.125/150
QB50P1 02 Jun 13:06:15 13:07:34 11° 268° (W) 13:08:35 145.935-145.965
SO-50 02 Jun 13:09:43 13:11:10 11° 252° (WSW) 13:12:16 436.795
DX 1 02 Jun 13:10:22 13:11:32 11° 291° (WNW) 13:12:25 434.975-435.025
DANDE 02 Jun 13:15:00 13:22:24 78° 279° (W) 13:30:59 436.750
CUBEBUG 1 02 Jun 13:27:31 13:31:18 27° 287° (WNW) 13:34:59 437.445
TISAT 1 02 Jun 13:32:35 13:36:46 56° 100° (E) 13:40:55 437.305
GONETS M04 02 Jun 13:36:51 13:45:40 74° 277° (W) 13:54:31
SPROUT 02 Jun 13:37:41 13:42:01 83° 282° (WNW) 13:46:18 437.525
Cosmos 2499 02 Jun 13:52:19 13:57:53 22° 88° (E) 14:03:32 435.465 / 435.565
O/OREOS (USA 219) 02 Jun 13:59:40 14:03:18 25° 103° (ESE) 14:07:03 437.305
SRMSAT 02 Jun 14:21:43 14:25:59 20° 194° (SSW) 14:30:10 437.500
ITUPSAT 1 02 Jun 14:38:59 14:43:32 42° 99° (E) 14:48:05 437.325
Oscar 19 02 Jun 14:39:58 14:44:57 46° 261° (W) 14:49:55 437.125/150
BEESAT 02 Jun 14:41:51 14:46:26 47° 99° (E) 14:51:03 436.000
CUSAT 1 02 Jun 14:45:01 14:48:53 13° 296° (WNW) 14:52:11 437.405
Gurwin Techsat 1B 02 Jun 14:51:02 14:56:11 55° 75° (ENE) 15:01:23 435.225
SWISSCUBE 02 Jun 14:51:26 14:56:11 68° 101° (E) 15:00:58 437.505
DANDE 02 Jun 15:03:45 15:07:19 13° 298° (WNW) 15:10:15 436.750
ITAMSAT 1 02 Jun 15:09:58 15:15:08 88° 256° (WSW) 15:20:21 435.822/435.867
RS-15 02 Jun 15:13:48 15:17:46 12° 28° (NNE) 15:22:33 29.354- 29.394
O/OREOS (USA 219) 02 Jun 15:39:12 15:42:42 21° 296° (WNW) 15:46:05 437.305
Cosmos 2499 02 Jun 15:42:50 15:50:42 54° 279° (W) 15:58:00 435.465 / 435.565
AO-7 02 Jun 15:43:31 15:50:48 37° 66° (ENE) 15:58:18 29.400- 29.500
HORYU 2 02 Jun 15:47:46 15:51:35 29° 73° (ENE) 15:55:27 437.375
BEESAT 3 02 Jun 15:48:31 15:51:55 27° 112° (ESE) 15:55:25 437.485
JAS-2 02 Jun 15:53:25 15:59:30 43° 74° (ENE) 16:04:59 435.910
KKS-1 02 Jun 16:00:53 16:05:17 58° 100° (E) 16:09:39 437.445
ITUPSAT 1 02 Jun 16:18:17 16:21:06 15° 291° (WNW) 16:23:41 437.325
BEESAT 02 Jun 16:21:29 16:23:56 14° 291° (WNW) 16:26:07 436.000
Gurwin Techsat 1B 02 Jun 16:33:58 16:36:33 13° 269° (W) 16:38:47 435.225
BEESAT 2 02 Jun 16:46:44 16:50:48 68° 298° (WNW) 16:54:55 435.950
STARS 02 Jun 16:46:51 16:51:13 64° 284° (WNW) 16:55:32 437.465
MOZHAYETS 4 02 Jun 16:48:30 16:50:27 13° 92° (E) 16:52:42
RS-15 02 Jun 17:22:51 17:34:06 51° 56° (NE) 17:45:52 29.354- 29.394
AIST 2 02 Jun 17:24:12 17:28:25 76° 116° (ESE) 17:32:42 435.215
HORYU 2 02 Jun 17:25:02 17:28:15 19° 265° (W) 17:31:18 437.375
BEESAT 3 02 Jun 17:26:56 17:29:55 19° 306° (NW) 17:32:48 437.485
YUBILEINY 02 Jun 17:30:14 17:36:01 20° 70° (ENE) 17:42:18 435.215
AO-7 02 Jun 17:35:52 17:43:32 40° 261° (W) 17:51:07 29.400- 29.500
Cosmos 2491 02 Jun 17:35:56 17:36:09 10° 82° (E) 17:37:21 435.465 / 435.565
JAS-2 02 Jun 17:39:39 17:44:40 22° 264° (W) 17:49:04 435.910
CUTE-I 02 Jun 18:18:03 18:22:36 31° 72° (ENE) 18:27:17 437.470
MOZHAYETS 4 02 Jun 18:23:35 18:27:55 42° 285° (WNW) 18:32:14
Cubesat XI-IV 02 Jun 18:40:20 18:45:28 54° 74° (ENE) 18:50:40 437.490
CUBESAT XI-V 02 Jun 18:46:52 18:50:20 21° 94° (E) 18:53:56 437.345
Cosmos 2491 02 Jun 19:23:12 19:31:58 80° 94° (E) 19:40:50 435.465 / 435.565
YUBILEINY 02 Jun 19:25:00 19:33:36 66° 267° (W) 19:42:10 435.215
BRITE-PL 02 Jun 19:27:25 19:29:30 13° 67° (ENE) 19:31:58 437.365/2234.400
RS-15 02 Jun 19:35:38 19:46:27 41° 251° (WSW) 19:57:15 29.354- 29.394
STRAND 1 02 Jun 19:50:18 19:55:06 39° 98° (E) 19:59:55 437.568
HO-68 02 Jun 19:51:00 19:54:57 17° 64° (ENE) 19:59:20 435.675
CUTE-I 02 Jun 19:58:23 20:02:42 24° 265° (W) 20:06:54 437.470
M-CUBED/EXP-1 PRIME 02 Jun 20:04:39 20:05:49 12° 99° (E) 20:07:13 437.505
PRISM 02 Jun 20:07:28 20:11:38 73° 101° (ESE) 20:15:49 437.425
AIST 1 02 Jun 20:08:52 20:12:59 52° 94° (E) 20:17:11
Cubesat XI-IV 02 Jun 20:23:12 20:25:57 14° 268° (W) 20:28:21 437.490
CUBESAT XI-V 02 Jun 20:23:42 20:27:47 29° 287° (WNW) 20:31:46 437.345
GOMX 1 02 Jun 20:26:35 20:31:12 33° 73° (ENE) 20:36:04 467.674
ISS 02 Jun 20:43:03 20:46:17 78° 316° (NW) 20:49:31 145.825
DOVE 4 02 Jun 20:50:25 20:55:08 37° 73° (ENE) 21:00:01 437.250
BRITE-PL 02 Jun 21:02:14 21:07:23 66° 260° (W) 21:12:55 437.365/2234.400
CINEMA 3 02 Jun 21:10:16 21:14:25 28° 73° (ENE) 21:18:41 145.822/145.860
CUBEBUG 2 02 Jun 21:12:55 21:14:56 13° 70° (ENE) 21:17:13 437.445
Cosmos 2491 02 Jun 21:24:32 21:29:57 16° 292° (WNW) 21:34:45 435.465 / 435.565
DELFI C3 02 Jun 21:28:43 21:30:12 12° 71° (ENE) 21:31:55 145.870
STRAND 1 02 Jun 21:30:26 21:34:03 19° 290° (WNW) 21:37:26 437.568
CANX-2 02 Jun 21:30:50 21:35:05 72° 259° (W) 21:39:19 2200.000
Cosmos 2504 02 Jun 21:32:31 21:39:43 88° 84° (E) 21:47:10 435.465 / 435.565
CUTE 1.7 + AOD 2 02 Jun 21:33:11 21:37:25 76° 259° (W) 21:41:39 437.475
FUNcube-1 02 Jun 21:33:35 21:35:23 13° 70° (ENE) 21:37:27 145.935
HO-68 02 Jun 21:34:53 21:42:04 75° 257° (WSW) 21:49:16 435.675
M-CUBED/EXP-1 PRIME 02 Jun 21:37:56 21:40:44 24° 290° (WNW) 21:43:36 437.505
AUBIESAT-1 02 Jun 21:38:32 21:41:30 29° 289° (WNW) 21:44:33 437.475
UWE-3 02 Jun 21:42:26 21:45:58 22° 73° (ENE) 21:49:37 435.000/436.395/437.385
SEEDS 02 Jun 21:43:42 21:47:54 69° 259° (W) 21:52:06 437.485
COMPASS 1 02 Jun 21:44:31 21:48:42 88° 256° (WSW) 21:52:53 437.405
AAUSAT CUBESAT 2 02 Jun 21:50:01 21:54:11 89° 246° (WSW) 21:58:21 437.432
VERMONT LUNAR 02 Jun 21:50:32 21:53:36 38° 145° (SE) 21:56:40 437.305
UKube-1 02 Jun 22:04:04 22:05:02 11° 69° (ENE) 22:06:17 .
GOMX 1 02 Jun 22:05:07 22:09:21 24° 267° (W) 22:13:34 467.674
Oscar 11 02 Jun 22:09:38 22:13:55 65° 77° (ENE) 22:18:12 145.826/435.025
ZACube-1 02 Jun 22:14:49 22:19:06 40° 75° (ENE) 22:23:23 437.345
PHONESAT 2.4 02 Jun 22:16:17 22:17:56 13° 140° (SE) 22:19:43 2401.200-2431.200
DX 1 02 Jun 22:21:57 22:25:08 21° 71° (ENE) 22:28:26 434.975-435.025
DOVE 4 02 Jun 22:29:06 22:32:59 20° 267° (W) 22:36:45 437.250
HUMSAT D 02 Jun 22:42:17 22:46:10 35° 75° (ENE) 22:50:05 437.325/437.525
CUBEBUG 2 02 Jun 22:46:38 22:51:15 49° 261° (W) 22:55:51 437.445
CINEMA 3 02 Jun 22:47:23 22:51:32 25° 265° (W) 22:55:36 145.822/145.860
TIGRISAT 02 Jun 22:52:43 22:54:23 12° 92° (E) 22:56:19 435.000
DELFI C3 02 Jun 23:01:19 23:05:02 35° 262° (W) 23:08:43 145.870
PCSat 02 Jun 23:02:52 23:07:48 39° 110° (ESE) 23:12:50 145.827
VELOX 1 02 Jun 23:05:15 23:09:09 32° 73° (ENE) 23:13:08 145.980
FUNcube-1 02 Jun 23:06:57 23:11:23 46° 261° (W) 23:15:44 145.935
UNISAT 6 02 Jun 23:15:00 23:18:33 26° 96° (E) 23:22:08 437.425
UWE-3 02 Jun 23:18:23 23:22:23 27° 264° (W) 23:26:15 435.000/436.395/437.385
QB50P1 02 Jun 23:20:52 23:22:06 11° 92° (E) 23:23:38 145.935-145.965
50 SAT 02 Jun 23:25:28 23:29:26 65° 76° (ENE) 23:33:21 437.505
POLYITAN 1 02 Jun 23:26:25 23:28:34 14° 93° (E) 23:30:55 437.675
VERMONT LUNAR 02 Jun 23:27:54 23:30:48 29° 338° (NNW) 23:33:42 437.305
UKube-1 02 Jun 23:36:36 23:40:47 48° 260° (W) 23:44:59 .
ESTCUBE 1 02 Jun 23:38:11 23:42:26 45° 75° (ENE) 23:46:43 437.505/2401.250
AISAT 02 Jun 23:39:07 23:43:34 89° 76° (ENE) 23:48:05 437.250
CUSAT 1 02 Jun 23:45:46 23:51:24 52° 77° (ENE) 23:55:36 437.405
NANOSAT C BR1 02 Jun 23:47:18 23:50:48 25° 96° (E) 23:54:21 145.865
PHONESAT 2.4 02 Jun 23:52:15 23:55:47 79° 331° (NNW) 23:59:18 2401.200-2431.200
ZACube-1 02 Jun 23:53:11 23:55:38 14° 268° (W) 23:57:49 437.345
BUGSAT 1 02 Jun 23:55:09 23:58:15 20° 95° (E) 00:01:27 437.445
DX 1 02 Jun 23:57:37 00:01:15 25° 264° (W) 00:04:49 434.975-435.025
